This demonstration page uses our WeatherBlox Daily Observations layout. Learn more.

Left ArrowRight Arrow

Hourly Observations for June 30, 2017

Temp ( °F °C ) Dew Point ( °F °C ) Humidity (%) Winds ( mph kmh ) Pressure ( in mb ) Visibility ( mi km ) Precip ( " mm )
12:53 am 00:53 Clear 78 25.6 53 11.7 42 42 N 5 7 29.86 1011 10 16 0.00 0.00
1:53 am 01:53 Clear 78 25.6 52 11.1 40 40 N 6 9 29.86 1011 10 16 0.00 0.00
2:53 am 02:53 Clear 75 23.9 54 12.2 48 48 N 5 7 29.85 1011 10 16 0.00 0.00
3:53 am 03:53 Clear 73 22.8 55 12.8 53 53 N 3 6 29.85 1011 10 16 0.00 0.00
4:53 am 04:53 Clear 72 22.2 55 12.8 55 55 N 5 7 29.85 1011 10 16 0.00 0.00
5:53 am 05:53 Sunny 69 20.6 56 13.3 63 63 Calm 29.87 1011 10 16 0.00 0.00
6:53 am 06:53 Sunny 70 21.1 56 13.3 61 61 Calm 29.87 1012 10 16 0.00 0.00
7:53 am 07:53 Sunny 78 25.6 53 11.7 42 42 NE 3 6 29.87 1011 10 16 0.00 0.00
8:53 am 08:53 Sunny 83 28.3 55 12.8 38 38 VRB 3 6 29.86 1011 10 16 0.00 0.00
9:53 am 09:53 Sunny 89 31.7 48 8.9 24 24 VRB 5 7 29.85 1011 10 16 0.00 0.00
10:53 am 10:53 Sunny 90 32.2 53 11.7 28 28 SSE 6 9 29.84 1011 10 16 0.00 0.00
11:53 am 11:53 Sunny 93 33.9 51 10.6 24 24 S 3 6 29.83 1010 10 16 0.00 0.00
12:53 pm 12:53 Sunny 97 36.1 51 10.6 21 21 VRB 5 7 29.81 1010 10 16 0.00 0.00
1:53 pm 13:53 Sunny 98 36.7 48 8.9 18 18 VRB 6 9 29.80 1009 10 16 0.00 0.00
2:53 pm 14:53 Sunny 101 38.3 47 8.3 16 16 S 9 15 29.78 1008 10 16 0.00 0.00
3:53 pm 15:53 Sunny 101 38.3 50 10 18 18 S 10 17 29.76 1008 10 16 0.00 0.00
4:37 pm 16:37 Sunny 101 38.3 52 11.1 19 19 S 10 17 29.74 1007 10 16 0.00 0.00
4:53 pm 16:53 Sunny 100 37.8 56 13.3 23 23 SSE 16 26 29.74 1007 10 16 0.00 0.00
5:53 pm 17:53 Sunny 99 37.2 57 13.9 25 25 SSE 13 20 29.73 1007 10 16 0.00 0.00
6:53 pm 18:53 Sunny 96 35.6 57 13.9 27 27 SSE 12 19 29.72 1007 10 16 0.00 0.00
7:53 pm 19:53 Sunny 93 33.9 58 14.4 31 31 S 8 13 29.73 1007 10 16 0.00 0.00
8:53 pm 20:53 Clear 87 30.6 61 16.1 42 42 S 6 9 29.73 1007 10 16 0.00 0.00
9:53 pm 21:53 Clear 84 28.9 62 16.7 48 48 NE 3 6 29.75 1007 10 16 0.00 0.00
10:53 pm 22:53 Clear 82 27.8 63 17.2 53 53 NE 5 7 29.77 1008 10 16 0.00 0.00
11:53 pm 23:53 Clear 81 27.2 64 17.8 57 57 E 6 9 29.78 1008 10 16 0.00 0.00

Powered by AerisWeather